Change the Weather History Date:

Wednesday, March 19, 2014

  Actual Average Record
Temperature  
Mean Temperature 44 °F -  
Max Temperature 53 °F 46 °F 80 °F (2012)
Min Temperature 36 °F 28 °F 13 °F (1950)
Degree Days  
Heating Degree Days 20    
Moisture  
Dew Point 37 °F    
Average Humidity 77    
Maximum Humidity 83    
Minimum Humidity 70    
Precipitation  
Precipitation 0.13 in - - ()
Sea Level Pressure  
Sea Level Pressure 29.70 in    
Wind  
Wind Speed 11 mph (SSW)    
Max Wind Speed 26 mph    
Max Gust Speed 37 mph    
Visibility 7 miles    
Events Rain    
Averages and records for this station are not official NWS values.
T = Trace of Precipitation, MM = Missing Value Source: NWS Daily Summary

Daily Weather History Graph

Daily Weather History Graph

Search for Another Location

Airport or City:

Trip Planner

Search our weather history database for the weather conditions in past years. The results will help you decide how hot, cold, wet, or windy it might be!

Date:

Astronomy

Mar. 19, 2014 Rise Set
Actual Time 7:39 AM EDT 7:45 PM EDT
Civil Twilight 7:11 AM EDT 8:13 PM EDT
Nautical Twilight 6:38 AM EDT 8:45 PM EDT
Astronomical Twilight 6:05 AM EDT 9:19 PM EDT
Moon 11:06 PM EDT (3/19) 9:00 AM EDT (3/19)
Length of Visible Light 13h 01m
Length of Day
12h 06m
Waning Gibbous, 91% of the Moon is Illuminated
Mar 19
Waning Gibbous
Mar 23
Last Quarter
Mar 30
New
Apr 7
First Quarter
Apr 15
Full

Hourly Weather History & Observations

Time (EDT) Temp. Windchill Dew Point Humidity Pressure Visibility Wind Dir Wind Speed Gust Speed Precip Events Conditions
12:53 AM 36.0 °F 31.1 °F 27.0 °F 70% 29.89 in 10.0 mi ENE 5.8 mph - N/A   Clear
1:53 AM 37.0 °F 32.4 °F 28.9 °F 73% 29.87 in 10.0 mi ENE 5.8 mph - N/A   Mostly Cloudy
2:53 AM 37.9 °F - 28.9 °F 70% 29.85 in 10.0 mi Calm Calm - N/A   Overcast
3:53 AM 39.0 °F 34.8 °F 30.0 °F 70% 29.81 in 10.0 mi East 5.8 mph - N/A   Overcast
4:53 AM 39.0 °F 33.4 °F 30.9 °F 73% 29.77 in 10.0 mi ESE 8.1 mph - N/A   Overcast
5:53 AM 41.0 °F 36.4 °F 32.0 °F 70% 29.75 in 10.0 mi SE 6.9 mph - N/A   Overcast
6:07 AM 41.0 °F 35.8 °F 32.0 °F 70% 29.74 in 10.0 mi SE 8.1 mph - N/A   Overcast
6:53 AM 41.0 °F 34.7 °F 33.1 °F 73% 29.74 in 10.0 mi SSE 10.4 mph - N/A   Overcast
7:49 AM 42.8 °F 37.0 °F 33.8 °F 70% 29.72 in 10.0 mi South 10.4 mph - N/A   Overcast
7:53 AM 42.1 °F 36.1 °F 34.0 °F 73% 29.72 in 10.0 mi South 10.4 mph - N/A   Overcast
8:53 AM 43.0 °F 36.8 °F 37.0 °F 80% 29.71 in 4.0 mi South 11.5 mph - 0.00 in Rain Light Rain
9:51 AM 44.6 °F 39.2 °F 39.2 °F 81% 29.69 in 5.0 mi South 10.4 mph - 0.02 in   Haze
9:53 AM 45.0 °F 39.3 °F 39.9 °F 82% 29.69 in 5.0 mi South 11.5 mph - 0.02 in   Haze
10:29 AM 46.0 °F 40.6 °F 41.0 °F 83% 29.68 in 2.5 mi South 11.5 mph - 0.00 in Rain Light Rain
10:36 AM 46.0 °F 40.6 °F 41.0 °F 83% 29.68 in 1.8 mi South 11.5 mph - 0.00 in Rain Light Rain
10:40 AM 46.0 °F 40.6 °F 41.0 °F 83% 29.68 in 2.0 mi South 11.5 mph - 0.01 in Rain Light Rain
10:51 AM 46.4 °F 40.7 °F 41.0 °F 81% 29.68 in 1.8 mi South 12.7 mph - 0.05 in Rain Rain
10:53 AM 46.0 °F 40.2 °F 41.0 °F 83% 29.68 in 2.0 mi South 12.7 mph - 0.05 in Rain Rain
11:15 AM 46.0 °F 40.2 °F 41.0 °F 83% 29.67 in 3.0 mi South 12.7 mph - 0.01 in Rain Light Rain
11:53 AM 46.9 °F - 42.1 °F 83% 29.67 in 5.0 mi South 9.2 mph - 0.02 in   Haze
12:53 PM 50.0 °F - 43.0 °F 77% 29.65 in 9.0 mi SSW 19.6 mph 28.8 mph 0.00 in   Overcast
1:53 PM 50.0 °F - 43.0 °F 77% 29.63 in 9.0 mi SSW 17.3 mph 27.6 mph N/A   Overcast
2:46 PM 53.1 °F - 44.1 °F 71% 29.61 in 8.0 mi SSW 17.3 mph - N/A   Overcast
2:53 PM 53.1 °F - 44.1 °F 71% 29.61 in 8.0 mi SSW 18.4 mph 25.3 mph N/A   Overcast
3:53 PM 52.0 °F - 43.0 °F 71% 29.60 in 8.0 mi SW 15.0 mph 24.2 mph N/A   Overcast
4:29 PM 50.0 °F - 42.1 °F 74% 29.60 in 7.0 mi SW 18.4 mph - N/A   Overcast
4:53 PM 48.9 °F - 43.0 °F 80% 29.60 in 2.5 mi SW 17.3 mph 26.5 mph 0.00 in Rain Light Rain
5:14 PM 48.9 °F - 43.0 °F 80% 29.61 in 3.0 mi SW 15.0 mph - 0.01 in Rain Light Rain
5:34 PM 48.0 °F - 43.0 °F 83% 29.61 in 4.0 mi WSW 15.0 mph - 0.01 in Rain Light Rain
5:43 PM 48.0 °F - 43.0 °F 83% 29.62 in 4.0 mi WSW 17.3 mph - 0.02 in Rain Light Rain
5:53 PM 48.0 °F - 43.0 °F 83% 29.63 in 4.0 mi WSW 15.0 mph - 0.02 in Rain Light Rain
6:15 PM 46.9 °F - 42.1 °F 83% 29.63 in 5.0 mi WSW 15.0 mph - 0.01 in Rain Light Rain
6:32 PM 46.9 °F - 41.0 °F 80% 29.64 in 7.0 mi SW 13.8 mph - 0.01 in Rain Light Rain
6:53 PM 46.9 °F - 39.9 °F 77% 29.65 in 10.0 mi WSW 12.7 mph - 0.02 in Rain Light Rain
7:53 PM 43.0 °F 34.5 °F 36.0 °F 76% 29.70 in 10.0 mi West 19.6 mph 36.8 mph 0.00 in   Overcast
8:17 PM 41.0 °F 30.5 °F 33.1 °F 73% 29.71 in 10.0 mi West 26.5 mph 33.4 mph N/A   Overcast
8:53 PM 39.0 °F 29.3 °F 32.0 °F 76% 29.75 in 10.0 mi West 19.6 mph 34.5 mph N/A   Overcast
9:46 PM 39.0 °F 28.8 °F 30.9 °F 73% 29.77 in 8.0 mi West 21.9 mph 31.1 mph N/A   Overcast
9:53 PM 37.9 °F 27.9 °F 30.9 °F 76% 29.78 in 8.0 mi West 19.6 mph - N/A   Overcast
10:53 PM 39.0 °F 28.8 °F 30.0 °F 70% 29.80 in 7.0 mi West 21.9 mph 28.8 mph N/A   Overcast
11:53 PM 39.0 °F 30.6 °F 32.0 °F 76% 29.82 in 5.0 mi West 15.0 mph - N/A   Haze